Home   Weather   Chichester   Past weeks

Flag for United Kingdom Past Weather in Chichester, England, United Kingdom — Yesterday and Last 2 Weeks

Now
51 °F

Fog.


Feels Like: 49 °F
Forecast: N/A
Wind: 6 mph from South

Location: Thorney Island

Current Time: Dec 9, 2016 at 5:41:47 pm

Latest Report: Dec 9, 2016 at 4:00 pm


Visibility: 2 mi

Pressure: 30.29 "Hg

Humidity: 95%

Dew Point: 50 °F

Location of ChichesterLocation

Past Weather in Chichester — Graph

°F

Chichester Temperature Yesterday

Maximum temperature yesterday: 53 °F (at 10:00 pm)
Minimum temperature yesterday: 49 °F (at 1:00 am)
Average temperature yesterday: 51 °F

High & Low Weather Summary for the Past Weeks

 TemperatureHumidityPressure
High54 °F (Dec 9, 12:00 pm)100% (Dec 6, 11:00 am)30.59 "Hg (Dec 6, 11:00 am)
Low25 °F (Dec 1, 4:00 am)45% (Nov 28, 1:00 pm)30.06 "Hg (Nov 25, 3:00 pm)
Average42 °F84%30.30 "Hg
* Reported Nov 24 4:00 pm — Dec 9 4:00 pm, Chichester, Weather by CustomWeather, © 2016

Note: Actual official high and low records may vary slightly from our data, if they occured in-between our weather recording intervals... More about our weather records

Advertising

Chichester Weather History for the Previous 24 Hours

Scroll right to see more
 ConditionsComfort  
Time TempWeatherWind HumidityBarometerVisibility
4:00 pm
Fri, Dec 9
51 °FFog.6 mph95%30.29 "Hg2 mi
3:00 pm52 °FFog.10 mph95%30.30 "Hg3 mi
2:00 pm53 °FSmoke.13 mph91%30.32 "Hg4 mi
1:00 pm54 °FSmoke.15 mph90%30.31 "Hg6 mi
12:00 pm54 °FSmoke.12 mph91%30.33 "Hg5 mi
11:00 am52 °FFog.7 mph96%30.34 "Hg2 mi
10:00 am51 °FFog.5 mph99%30.34 "Hg2 mi
9:00 am51 °FFog.6 mph99%30.33 "Hg2 mi
8:00 am51 °FFog.2 mph99%30.33 "Hg2 mi
6:00 am51 °FFog.9 mph99%30.32 "Hg2 mi
12:00 am51 °FCool.9 mph99%30.34 "Hg1 mi
11:00 pm
Thu, Dec 8
51 °FCool.8 mph98%30.35 "Hg1 mi
10:00 pm53 °FFog.10 mph97%30.34 "Hg3 mi
9:00 pm52 °FFog.3 mph95%30.34 "Hg4 mi
7:00 pm52 °FFog.7 mph97%30.33 "Hg3 mi
6:00 pm52 °FFog.6 mph96%30.32 "Hg4 mi
5:00 pm52 °FFog.7 mph96%30.31 "Hg6 mi
Weather by CustomWeather, © 2016

See weather overviewHow to use our weather pages